Location: *
(0.1100°N, 5.5000°E)
Time: 11:19:18
(UTC+00:00)

CZ-4B R/B - Pass Details

Date: 07 December 2022
Orbit: 809 x 881 km, 99.0° (Epoch: 07 February)

Event Time Altitude Azimuth Distance (km) Brightness Sun altitude
Rises 18:52:12 0° 163° (SSE) 3,478 6.5 -19.0°
Reaches altitude 10° 18:54:36 10° 161° (SSE) 2,536 5.7 -19.6°
Maximum altitude 19:00:15 73° 77° (ENE) 914 3.1 -20.9°
Drops below altitude 10° 19:05:48 10° 353° (N) 2,500 5.5 -22.1°
Sets 19:08:09 0° 351° (N) 3,425 6.2 -22.7°
